,,PA_Meas_PMT16A,,PR_Meas_QMR101_102,,RH_Meas_QMH101,,SR_Meas_QMS101,,TA_Meas_QMH101,,GenWind,,GenWind,
time,status,PA,status,PR,status,RH,status,SR,status,TA,status,DirAvg,status,SpdAvg,
2014-06-07, 06:43:04,VALID,914.575,VALID,0,VALID,97.3281,VALID,26.8603,VALID,18.9243,VALID,144,VALID,0.690234,
2014-06-07, 06:44:04,VALID,914.557,VALID,0,VALID,97.3281,VALID,28.257,VALID,18.9438,VALID,164,VALID,1.06055,
2014-06-07, 06:45:04,VALID,914.589,VALID,0,VALID,97.3281,VALID,29.4389,VALID,18.9424,VALID,163,VALID,1.11914,
2014-06-07, 06:46:04,VALID,914.575,VALID,0,VALID,97.3129,VALID,30.7282,VALID,18.9828,VALID,164,VALID,1.56914,
2014-06-07, 06:47:04,VALID,914.588,VALID,0,VALID,97.3205,VALID,33.1993,VALID,19.0008,VALID,158,VALID,1.00977,
2014-06-07, 06:48:04,VALID,914.597,VALID,0,VALID,97.3434,VALID,37.8193,VALID,19.0008,VALID,158,VALID,0.696484,
2014-06-07, 06:49:04,VALID,914.621,VALID,0,VALID,97.3129,VALID,42.2244,VALID,19.0413,VALID,157,VALID,0.930469,
2014-06-07, 06:50:04,VALID,914.588,VALID,0,VALID,97.3053,VALID,44.3732,VALID,19.0398,VALID,163,VALID,0.809766,
2014-06-07, 06:51:04,VALID,914.64,VALID,0,VALID,97.3129,VALID,45.6625,VALID,19.0788,VALID,157,VALID,0.883203,
2014-06-07, 06:52:04,VALID,914.627,VALID,0,VALID,97.2977,VALID,47.2741,VALID,19.1178,VALID,160,VALID,1.41172,
2014-06-07, 06:53:04,VALID,914.613,VALID,0,VALID,97.2977,VALID,48.9932,VALID,19.1568,VALID,159,VALID,1.10273,
2014-06-07, 06:54:04,VALID,914.621,VALID,0,VALID,97.29,VALID,50.9271,VALID,19.1958,VALID,159,VALID,1.66094,
2014-06-07, 06:55:04,VALID,914.626,VALID,0,VALID,97.2748,VALID,52.109,VALID,19.2543,VALID,158,VALID,0.966797,
2014-06-07, 06:56:04,VALID,914.615,VALID,0,VALID,97.29,VALID,52.861,VALID,19.2933,VALID,143,VALID,1.59922,
2014-06-07, 06:57:04,VALID,914.61,VALID,0,VALID,97.29,VALID,53.3983,VALID,19.3323,VALID,146,VALID,1.47266,
2014-06-07, 06:58:04,VALID,914.579,VALID,0,VALID,97.2748,VALID,54.1503,VALID,19.4118,VALID,129,VALID,1.33086,
2014-06-07, 06:59:04,VALID,914.583,VALID,0,VALID,97.2519,VALID,54.9024,VALID,19.5093,VALID,133,VALID,1.77422,
2014-06-07, 07:00:04,VALID,914.578,VALID,0,VALID,97.2443,VALID,56.0843,VALID,19.6068,VALID,131,VALID,2.02187,
2014-06-07, 07:01:04,VALID,914.568,VALID,0,VALID,97.2062,VALID,58.8778,VALID,19.6848,VALID,133,VALID,2.34414,
2014-06-07, 07:02:04,VALID,914.532,VALID,0,VALID,97.1757,VALID,62.5308,VALID,19.8213,VALID,139,VALID,1.61406,
2014-06-07, 07:03:04,VALID,914.525,VALID,0,VALID,97.1452,VALID,66.0763,VALID,19.8603,VALID,130,VALID,1.98594,
2014-06-07, 07:04:04,VALID,914.52,VALID,0,VALID,97.1071,VALID,68.9772,VALID,19.8993,VALID,138,VALID,2.54453,
2014-06-07, 07:05:04,VALID,914.517,VALID,0,VALID,97.0308,VALID,71.9856,VALID,19.9773,VALID,135,VALID,1.47656,
2014-06-07, 07:06:04,VALID,914.522,VALID,0,VALID,96.9927,VALID,75.3162,VALID,20.0179,VALID,130,VALID,1.33242,
2014-06-07, 07:07:04,VALID,914.522,VALID,0,VALID,96.9012,VALID,78.8618,VALID,20.0358,VALID,135,VALID,2.2875,
2014-06-07, 07:08:04,VALID,914.542,VALID,0,VALID,96.7793,VALID,82.085,VALID,20.1139,VALID,140,VALID,1.19687,
2014-06-07, 07:09:04,VALID,914.525,VALID,0,VALID,96.6649,VALID,84.6636,VALID,20.1334,VALID,118,VALID,2.28984,
2014-06-07, 07:10:04,VALID,914.553,VALID,0,VALID,96.4667,VALID,87.9943,VALID,20.1919,VALID,115,VALID,1.45547,
2014-06-07, 07:11:04,VALID,914.563,VALID,0,VALID,96.3142,VALID,91.6473,VALID,20.1919,VALID,124,VALID,1.87891,
2014-06-07, 07:12:04,VALID,914.592,VALID,0,VALID,96.1465,VALID,94.1184,VALID,20.2504,VALID,108,VALID,0.994141,
2014-06-07, 07:13:04,VALID,914.589,VALID,0,VALID,95.8568,VALID,96.2673,VALID,20.2879,VALID,157,VALID,2.22109,
2014-06-07, 07:14:04,VALID,914.562,VALID,0,VALID,95.4757,VALID,97.5566,VALID,20.3074,VALID,140,VALID,2.81445,
2014-06-07, 07:15:04,VALID,914.576,VALID,0,VALID,95.0411,VALID,99.3831,VALID,20.3269,VALID,140,VALID,2.2668,
2014-06-07, 07:16:04,VALID,914.598,VALID,0,VALID,94.5609,VALID,101.21,VALID,20.3074,VALID,138,VALID,2.00977,
2014-06-07, 07:17:04,VALID,914.59,VALID,0,VALID,93.7756,VALID,104.11,VALID,20.3269,VALID,134,VALID,1.06523,
2014-06-07, 07:18:04,VALID,914.626,VALID,0,VALID,93.181,VALID,107.334,VALID,20.3464,VALID,144,VALID,1.11406,
2014-06-07, 07:19:04,VALID,914.575,VALID,0,VALID,92.6245,VALID,110.342,VALID,20.3659,VALID,145,VALID,0.963672,
2014-06-07, 07:20:04,VALID,914.617,VALID,0,VALID,92.3348,VALID,114.532,VALID,20.3854,VALID,142,VALID,0.755859,
2014-06-07, 07:21:04,VALID,914.605,VALID,0,VALID,91.9003,VALID,117.541,VALID,20.4244,VALID,157,VALID,0.948047,
2014-06-07, 07:22:04,VALID,914.61,VALID,0,VALID,91.8393,VALID,120.656,VALID,20.4439,VALID,134,VALID,0.503125,
2014-06-07, 07:23:04,VALID,914.643,VALID,0,VALID,91.7554,VALID,123.557,VALID,20.4634,VALID,141,VALID,0.904688,
2014-06-07, 07:24:04,VALID,914.643,VALID,0,VALID,91.359,VALID,126.673,VALID,20.4829,VALID,149,VALID,1.32187,
2014-06-07, 07:25:04,VALID,914.662,VALID,0,VALID,91.1379,VALID,129.681,VALID,20.5024,VALID,154,VALID,0.878516,
2014-06-07, 07:26:04,VALID,914.653,VALID,0,VALID,90.894,VALID,132.905,VALID,20.5204,VALID,125,VALID,1.26563,
2014-06-07, 07:27:04,VALID,914.649,VALID,0,VALID,90.5357,VALID,136.02,VALID,20.5204,VALID,155,VALID,1.58438,
2014-06-07, 07:28:04,VALID,914.641,VALID,0,VALID,90.3222,VALID,139.566,VALID,20.6015,VALID,136,VALID,1.18281,
2014-06-07, 07:29:04,VALID,914.666,VALID,0,VALID,90.2384,VALID,143.326,VALID,20.6405,VALID,137,VALID,1.41602,
2014-06-07, 07:30:04,VALID,914.684,VALID,0,VALID,90.5204,VALID,146.335,VALID,20.6585,VALID,146,VALID,1.25625,
2014-06-07, 07:31:04,VALID,914.678,VALID,0,VALID,90.4747,VALID,149.128,VALID,20.699,VALID,145,VALID,1.59023,
2014-06-07, 07:32:04,VALID,914.69,VALID,0,VALID,90.0859,VALID,152.889,VALID,20.6975,VALID,150,VALID,1.51055,
2014-06-07, 07:33:04,VALID,914.694,VALID,0,VALID,89.7505,VALID,156.864,VALID,20.7185,VALID,146,VALID,1.92734,
2014-06-07, 07:34:04,VALID,914.7,VALID,0,VALID,89.6209,VALID,159.335,VALID,20.7365,VALID,143,VALID,2.20977,
2014-06-07, 07:35:04,VALID,914.688,VALID,0,VALID,89.3464,VALID,163.096,VALID,20.7755,VALID,129,VALID,2.33125,
2014-06-07, 07:36:04,VALID,914.664,VALID,0,VALID,89.3846,VALID,165.997,VALID,20.834,VALID,149,VALID,1.59414,
2014-06-07, 07:37:04,VALID,914.673,VALID,0,VALID,89.5828,VALID,168.253,VALID,20.8535,VALID,136,VALID,1.56211,
2014-06-07, 07:38:04,VALID,914.68,VALID,0,VALID,89.4455,VALID,171.691,VALID,20.873,VALID,139,VALID,1.61016,
2014-06-07, 07:39:04,VALID,914.653,VALID,0,VALID,89.7505,VALID,175.666,VALID,20.912,VALID,139,VALID,1.47969,
2014-06-07, 07:40:04,VALID,914.647,VALID,0,VALID,89.0186,VALID,178.89,VALID,20.9316,VALID,140,VALID,2.325,
2014-06-07, 07:41:04,VALID,914.653,VALID,0,VALID,88.5841,VALID,182.113,VALID,20.9901,VALID,142,VALID,1.96172,
2014-06-07, 07:42:04,VALID,914.659,VALID,0,VALID,88.7747,VALID,184.154,VALID,21.0486,VALID,158,VALID,1.52773,
2014-06-07, 07:43:04,VALID,914.676,VALID,0,VALID,88.0809,VALID,184.262,VALID,21.0681,VALID,148,VALID,1.64922,
2014-06-07, 07:44:04,VALID,914.679,VALID,0,VALID,88.2258,VALID,185.981,VALID,21.086,VALID,141,VALID,1.00195,
2014-06-07, 07:45:04,VALID,914.681,VALID,0,VALID,87.8446,VALID,189.311,VALID,21.1461,VALID,150,VALID,1.49727,
2014-06-07, 07:46:04,VALID,914.68,VALID,0,VALID,87.593,VALID,193.287,VALID,21.1852,VALID,146,VALID,1.6418,
2014-06-07, 07:47:04,VALID,914.679,VALID,0,VALID,87.2043,VALID,197.047,VALID,21.2226,VALID,147,VALID,1.91602,
2014-06-07, 07:48:04,VALID,914.677,VALID,0,VALID,87.3796,VALID,201.345,VALID,21.2827,VALID,150,VALID,1.97031,
2014-06-07, 07:49:04,VALID,914.671,VALID,0,VALID,87.3948,VALID,203.601,VALID,21.2811,VALID,144,VALID,1.55117,
2014-06-07, 07:50:04,VALID,914.683,VALID,0,VALID,87.0594,VALID,207.469,VALID,21.3217,VALID,152,VALID,1.61875,
2014-06-07, 07:51:04,VALID,914.674,VALID,0,VALID,87.1661,VALID,210.37,VALID,21.3608,VALID,147,VALID,1.35977,
2014-06-07, 07:52:04,VALID,914.654,VALID,0,VALID,86.9069,VALID,213.163,VALID,21.3981,VALID,143,VALID,2.00938,
2014-06-07, 07:53:04,VALID,914.644,VALID,0,VALID,86.1522,VALID,217.891,VALID,21.4388,VALID,149,VALID,1.78984,
2014-06-07, 07:54:04,VALID,914.651,VALID,0,VALID,86.6249,VALID,221.759,VALID,21.4778,VALID,134,VALID,0.940625,
2014-06-07, 07:55:04,VALID,914.633,VALID,0,VALID,86.5334,VALID,223.048,VALID,21.4957,VALID,158,VALID,1.54062,
2014-06-07, 07:56:04,VALID,914.606,VALID,0,VALID,86.2589,VALID,226.271,VALID,21.5559,VALID,146,VALID,1.49141,
2014-06-07, 07:57:04,VALID,914.575,VALID,0,VALID,86.4038,VALID,229.279,VALID,21.5737,VALID,150,VALID,1.53125,
2014-06-07, 07:58:04,VALID,914.584,VALID,0,VALID,85.9921,VALID,231.965,VALID,21.6339,VALID,141,VALID,1.65156,
2014-06-07, 07:59:04,VALID,914.538,VALID,0,VALID,85.8168,VALID,235.189,VALID,21.6518,VALID,153,VALID,2.0043,
2014-06-07, 08:00:04,VALID,914.572,VALID,0,VALID,85.5576,VALID,239.486,VALID,21.6908,VALID,141,VALID,2.12461,
2014-06-07, 08:01:04,VALID,914.546,VALID,0,VALID,85.7634,VALID,241.528,VALID,21.7298,VALID,148,VALID,1.27227,
2014-06-07, 08:02:04,VALID,914.555,VALID,0,VALID,85.8473,VALID,245.503,VALID,21.7883,VALID,147,VALID,1.41094,
2014-06-07, 08:03:04,VALID,914.545,VALID,0,VALID,86.015,VALID,248.404,VALID,21.8664,VALID,149,VALID,1.67383,
2014-06-07, 08:04:04,VALID,914.57,VALID,0,VALID,84.7343,VALID,251.95,VALID,21.8859,VALID,161,VALID,2.17383,
2014-06-07, 08:05:04,VALID,914.574,VALID,0,VALID,85.1231,VALID,258.289,VALID,21.9249,VALID,128,VALID,1.85,
2014-06-07, 08:06:04,VALID,914.578,VALID,0,VALID,84.2616,VALID,259.9,VALID,21.964,VALID,136,VALID,1.96992,
2014-06-07, 08:07:04,VALID,914.571,VALID,0,VALID,84.5361,VALID,262.156,VALID,22.003,VALID,153,VALID,1.66055,
2014-06-07, 08:08:04,VALID,914.598,VALID,0,VALID,84.5666,VALID,267.636,VALID,22.042,VALID,137,VALID,1.26758,
2014-06-07, 08:09:04,VALID,914.586,VALID,0,VALID,84.2921,VALID,270.429,VALID,22.081,VALID,144,VALID,2.01406,
2014-06-07, 08:10:04,VALID,914.586,VALID,0,VALID,84.0253,VALID,274.19,VALID,22.1201,VALID,142,VALID,1.78594,
2014-06-07, 08:11:04,VALID,914.587,VALID,0,VALID,83.2858,VALID,278.702,VALID,22.1396,VALID,167,VALID,2.1793,
2014-06-07, 08:12:04,VALID,914.625,VALID,0,VALID,83.08,VALID,281.496,VALID,22.1981,VALID,166,VALID,1.58438,
2014-06-07, 08:13:04,VALID,914.622,VALID,0,VALID,83.6212,VALID,284.182,VALID,22.2583,VALID,153,VALID,1.47695,
2014-06-07, 08:14:04,VALID,914.625,VALID,0,VALID,83.2477,VALID,284.182,VALID,22.2762,VALID,173,VALID,1.38984,
2014-06-07, 08:15:04,VALID,914.64,VALID,0,VALID,82.3786,VALID,284.934,VALID,22.3152,VALID,147,VALID,2.12734,
